📊 Raw Sensor Data

Showing records 38376 to 38400 of 84,928 total

ID Distance (ft) Battery V Battery A Int Temp (°F) Int Humid (%) Ext Temp (°F) Solar V RSSI SNR Time Stamp
46565 15.1 4.11 0 90 41 83 5.10 -69 8 07/17/2025 02:00 PM
46564 15.1 4.03 0 88 41 81 5.10 -71 8 07/17/2025 01:45 PM
46563 15.0 3.93 0 87 41 80 5.10 -70 8 07/17/2025 01:30 PM
46562 15.1 3.93 0 85 42 78 5.10 -70 8 07/17/2025 01:15 PM
46561 15.1 4.04 0 83 42 77 5.10 -70 8 07/17/2025 01:00 PM
46560 15.1 3.93 0 82 42 78 5.10 -70 7 07/17/2025 12:45 PM
46559 15.1 3.93 0 81 42 77 5.10 -68 8 07/17/2025 12:30 PM
46558 15.1 3.93 0 79 43 75 5.10 -70 8 07/17/2025 12:15 PM
46557 15.1 3.93 0 77 43 75 5.10 -70 7 07/17/2025 12:00 PM
46556 15.1 3.93 0 76 43 79 5.10 -70 8 07/17/2025 11:45 AM
46555 15.1 3.93 0 75 43 73 5.10 -69 7 07/17/2025 11:30 AM
46554 15.1 3.93 0 74 43 72 5.10 -69 8 07/17/2025 11:15 AM
46553 15.1 3.98 0 73 43 73 5.10 -71 8 07/17/2025 11:00 AM
46552 15.1 3.93 0 72 43 70 5.10 -70 8 07/17/2025 10:45 AM
46551 15.2 3.93 0 72 43 71 5.10 -71 8 07/17/2025 10:30 AM
46550 15.2 3.93 0 71 43 70 5.10 -71 8 07/17/2025 10:15 AM
46549 15.2 3.98 0 71 43 71 5.10 -70 7 07/17/2025 10:00 AM
46548 15.2 3.93 0 70 43 72 5.10 -70 8 07/17/2025 09:45 AM
46547 15.2 3.93 0 69 44 69 5.10 -71 7 07/17/2025 09:30 AM
46546 15.2 3.93 0 68 44 71 5.10 -70 8 07/17/2025 09:15 AM
46545 15.2 3.97 0 68 44 70 5.10 -69 8 07/17/2025 09:00 AM
46544 15.2 3.93 0 67 43 70 5.10 -70 8 07/17/2025 08:45 AM
46543 15.2 3.98 0 65 43 71 5.10 -69 8 07/17/2025 08:30 AM
46542 15.2 3.93 0 64 43 69 5.10 -71 8 07/17/2025 08:15 AM
46541 15.2 3.96 0 63 43 69 5.10 -73 8 07/17/2025 08:00 AM